This is the latest recevied weather packets stored in our database for station/object KF0JJO. If no packets are shown the sender has not sent any weather packets the latest 1 day(s).
| Time | Temp. | Humidity | Pressure | Rain* | Wind** | Luminosity | Snow |
|---|---|---|---|---|---|---|---|
| 1778035832 | 6.67° C | 44% | 1044.2 hPa | 0 mm | - | 0 W/m² | - |
| 1778035530 | 6.67° C | 44% | 1043.9 hPa | 0 mm | - | 0 W/m² | - |
| 1778035226 | 6.67° C | 44% | 1043.8 hPa | 0 mm | - | 0 W/m² | - |
| 1778034922 | 6.67° C | 44% | 1043.9 hPa | 0 mm | - | 0 W/m² | - |
| 1778034620 | 6.67° C | 43% | 1043.8 hPa | 0 mm | - | 0 W/m² | - |
| 1778034317 | 6.67° C | 43% | 1043.7 hPa | 0 mm | - | 0 W/m² | - |
| 1778034015 | 7.22° C | 43% | 1043.5 hPa | 0 mm | - | 0 W/m² | - |
| 1778033712 | 7.22° C | 43% | 1043.3 hPa | 0 mm | - | 0 W/m² | - |
| 1778033409 | 7.22° C | 42% | 1043.5 hPa | 0 mm | - | 0 W/m² | - |
| 1778033107 | 7.22° C | 42% | 1043.3 hPa | 0 mm | - | 0 W/m² | - |
| 1778032804 | 7.22° C | 41% | 1043.3 hPa | 0 mm | - | 0 W/m² | - |
| 1778032501 | 7.78° C | 41% | 1042.9 hPa | 0 mm | - | 0 W/m² | - |
| 1778032198 | 7.78° C | 41% | 1043.1 hPa | 0 mm | - | 0 W/m² | - |
| 1778031895 | 7.78° C | 40% | 1043.2 hPa | 0 mm | - | 0 W/m² | - |
| 1778031591 | 7.78° C | 40% | 1042.9 hPa | 0 mm | - | 0 W/m² | - |
| 1778031289 | 7.78° C | 41% | 1042.8 hPa | 0 mm | - | 1 W/m² | - |
| 1778030985 | 7.78° C | 40% | 1042.9 hPa | 0 mm | - | 1 W/m² | - |
| 1778030681 | 7.78° C | 41% | 1042.9 hPa | 0 mm | - | 2 W/m² | - |
| 1778029773 | 8.33° C | 38% | 1042.8 hPa | 0 mm | - | 6 W/m² | - |
| 1778029472 | 8.33° C | 38% | 1042.6 hPa | 0 mm | - | 8 W/m² | - |
| 1778029167 | 8.89° C | 38% | 1042.5 hPa | 0 mm | - | 11 W/m² | - |
| 1778028866 | 8.89° C | 38% | 1042.5 hPa | 0 mm | - | 13 W/m² | - |
| 1778028560 | 8.89° C | 38% | 1042.3 hPa | 0 mm | - | 17 W/m² | - |
| 1778028259 | 8.89° C | 37% | 1042.6 hPa | 0 mm | - | 23 W/m² | - |
| 1778027651 | 9.44° C | 37% | 1042.5 hPa | 0 mm | - | 26 W/m² | - |
* Rain latest hour (hover to see other rain measurements)
** Current wind speed in m/s (hover to see current wind gust speed)